Branson, MO

4:58 AM CDT on May 25, 2017 (GMT -0500)
Branson

Weather History for KBBG - February, 2013

Change the Weather History Date:

Wednesday, February 13, 2013

  Actual Average (KHRO) Record (KHRO)
Temperature  
Mean Temperature 40 °F -  
Max Temperature 48 °F 52 °F 81 °F (1962)
Min Temperature 32 °F 30 °F -20 °F (1905)
Degree Days  
Heating Degree Days 25    
Moisture  
Dew Point 30 °F    
Average Humidity 76    
Maximum Humidity 100    
Minimum Humidity 46    
Precipitation  
Precipitation 0.71 in - - ()
Sea Level Pressure  
Sea Level Pressure 29.94 in    
Wind  
Wind Speed 5 mph (West)    
Max Wind Speed 12 mph    
Max Gust Speed 17 mph    
Visibility 7 miles    
Events Rain , Snow    
Averages and records for this station are not official NWS values.
T = Trace of Precipitation, MM = Missing Value Source: NWS Daily Summary

Daily Weather History Graph

Daily Weather History Graph

Search for Another Location

Airport or City:

Trip Planner

Search our weather history database for the weather conditions in past years. The results will help you decide how hot, cold, wet, or windy it might be!

Date:

Astronomy

Feb. 13, 2013 Rise Set
Actual Time 7:02 AM CST 5:51 PM CST
Civil Twilight 6:36 AM CST 6:18 PM CST
Nautical Twilight 6:05 AM CST 6:48 PM CST
Astronomical Twilight 5:35 AM CST 7:18 PM CST
Moon 8:40 AM CST (2/13) 9:46 PM CST (2/13)
Length of Visible Light 11h 42m
Length of Day
10h 49m
Waxing Crescent, 14% of the Moon is Illuminated
Feb 13
Waxing Crescent
Feb 17
First Quarter
Feb 25
Full
Mar 4
Last Quarter
Mar 11
New

Hourly Weather History & Observations

Time (CST) Temp. Windchill Dew Point Humidity Pressure Visibility Wind Dir Wind Speed Gust Speed Precip Events Conditions
12:15 AM 32.0 °F 27.5 °F 32.0 °F 100% 29.94 in 1.0 mi North 4.6 mph - 0.07 in Snow Light Snow
12:35 AM 32.0 °F 28.7 °F 32.0 °F 100% 29.94 in 0.5 mi North 3.5 mph - 0.14 in Snow Snow
12:55 AM 32.0 °F 27.5 °F 32.0 °F 100% 29.93 in 0.2 mi NNW 4.6 mph - 0.18 in Snow Heavy Snow
1:15 AM 32.0 °F 27.5 °F 32.0 °F 100% 29.93 in - NNW 4.6 mph - 0.09 in Snow Heavy Snow
1:35 AM 32.0 °F - 32.0 °F 100% 29.93 in - Calm Calm - 0.26 in Snow Heavy Snow
1:55 AM 32.0 °F 28.7 °F 32.0 °F 100% 29.93 in 0.5 mi NW 3.5 mph - 0.42 in Snow Snow
2:15 AM 32.0 °F - 32.0 °F 100% 29.92 in 0.5 mi Calm Calm - 0.03 in Snow Snow
2:35 AM 32.0 °F - 32.0 °F 100% 29.92 in 1.2 mi Calm Calm - 0.06 in Snow Light Snow
2:55 AM 32.0 °F 28.7 °F 32.0 °F 100% 29.92 in 1.0 mi NW 3.5 mph - 0.07 in Rain Light Rain
3:15 AM 32.0 °F 27.5 °F 32.0 °F 100% 29.92 in 3.0 mi NW 4.6 mph - N/A Rain Light Rain
3:35 AM 32.0 °F 24.2 °F 32.0 °F 100% 29.92 in 5.0 mi NW 9.2 mph - N/A Rain Light Rain
3:55 AM 32.0 °F 25.6 °F 32.0 °F 100% 29.92 in 5.0 mi NW 6.9 mph - N/A Rain Light Rain
4:15 AM 32.0 °F 25.6 °F 32.0 °F 100% 29.93 in 5.0 mi NW 6.9 mph - N/A Rain Light Rain
4:35 AM 32.0 °F 25.6 °F 32.0 °F 100% 29.94 in 4.0 mi NW 6.9 mph - 0.01 in Snow Light Snow
4:55 AM 32.0 °F - 32.0 °F 100% 29.93 in 4.0 mi Calm Calm - 0.04 in Snow Light Snow
5:15 AM 32.0 °F 28.7 °F 32.0 °F 100% 29.93 in 3.0 mi WNW 3.5 mph - N/A Snow Light Snow
7:45 AM 32.0 °F - 32.0 °F 100% 29.97 in 7.0 mi Calm Calm - N/A   Overcast
8:46 AM 35.6 °F 30.7 °F 33.8 °F 93% 29.99 in 7.0 mi West 5.8 mph - N/A   Mostly Cloudy
9:45 AM 35.6 °F 29.2 °F 33.8 °F 93% 29.98 in 8.0 mi WSW 8.1 mph - N/A   Mostly Cloudy
10:52 AM 41.0 °F 36.4 °F 33.8 °F 76% 29.98 in 10.0 mi WSW 6.9 mph - N/A   Scattered Clouds
11:50 AM 42.8 °F 38.6 °F 33.8 °F 70% 29.97 in 10.0 mi WSW 6.9 mph - N/A   Partly Cloudy
12:46 PM 46.4 °F 41.1 °F 32.0 °F 57% 29.95 in 10.0 mi WNW 11.5 mph - N/A   Partly Cloudy
1:45 PM 46.4 °F 41.5 °F 30.2 °F 53% 29.94 in 10.0 mi West 10.4 mph - N/A   Partly Cloudy
2:45 PM 48.2 °F - 30.2 °F 50% 29.93 in 10.0 mi WSW 6.9 mph - N/A   Clear
3:48 PM 48.2 °F - 28.4 °F 46% 29.93 in 10.0 mi West 9.2 mph 17.3 mph N/A   Partly Cloudy
4:45 PM 48.2 °F - 28.4 °F 46% 29.92 in 10.0 mi West 6.9 mph - N/A   Partly Cloudy
5:45 PM 46.4 °F 44.3 °F 26.6 °F 46% 29.92 in 10.0 mi West 4.6 mph - N/A   Clear
6:45 PM 44.6 °F 40.7 °F 26.6 °F 49% 29.92 in 10.0 mi SW 6.9 mph - N/A   Clear
7:45 PM 44.6 °F 41.4 °F 28.4 °F 53% 29.93 in 10.0 mi SW 5.8 mph - N/A   Clear
7:55 PM 42.8 °F 38.6 °F 28.4 °F 57% 29.93 in 10.0 mi SW 6.9 mph - N/A   Clear
8:15 PM 41.0 °F 36.4 °F 28.4 °F 61% 29.93 in 10.0 mi SW 6.9 mph - N/A   Clear
8:35 PM 41.0 °F 36.4 °F 28.4 °F 61% 29.93 in 10.0 mi SW 6.9 mph - N/A   Clear
8:45 PM 41.0 °F 36.4 °F 28.4 °F 61% 29.93 in 10.0 mi SW 6.9 mph - N/A   Clear
8:55 PM 41.0 °F 35.2 °F 28.4 °F 61% 29.93 in 10.0 mi SW 9.2 mph - N/A   Clear
9:15 PM 41.0 °F 35.8 °F 28.4 °F 61% 29.94 in 10.0 mi SW 8.1 mph - N/A   Clear
9:35 PM 41.0 °F 35.8 °F 28.4 °F 61% 29.94 in 10.0 mi SW 8.1 mph - N/A   Clear
9:55 PM 41.0 °F 35.2 °F 28.4 °F 61% 29.94 in 10.0 mi SW 9.2 mph - N/A   Clear
10:15 PM 41.0 °F 35.2 °F 28.4 °F 61% 29.94 in 10.0 mi SW 9.2 mph - N/A   Clear
10:35 PM 41.0 °F 35.8 °F 28.4 °F 61% 29.94 in 10.0 mi SW 8.1 mph - N/A   Clear
10:55 PM 41.0 °F 35.2 °F 28.4 °F 61% 29.94 in 10.0 mi SW 9.2 mph - N/A   Clear
11:15 PM 41.0 °F 35.2 °F 28.4 °F 61% 29.94 in 10.0 mi SW 9.2 mph - N/A   Clear
11:35 PM 41.0 °F 35.2 °F 28.4 °F 61% 29.94 in 10.0 mi SW 9.2 mph - N/A   Clear
11:55 PM 41.0 °F 35.2 °F 28.4 °F 61% 29.94 in 10.0 mi SW 9.2 mph - N/A   Clear